Location: Brasstown Bald
(34.8693°N, 83.8103°W)
Time: 14:21:26
(UTC-04:00)

Amateur Radio Satellites - All Passes

Search period start: 23 September 2017 13:51
Search period end: 24 September 2017 13:51
Location: Brasstown Bald, 34.8693°N, 83.8103°W

Satellite Date Start Highest point End Downlink Frequencies (MHz)
Time Altitude Azimuth
VELOX 1 23 Sep 13:54:45 13:59:00 48° 100° (E) 14:03:15 145.980
SPROUT 23 Sep 13:56:23 14:00:41 76° 103° (ESE) 14:04:58 437.525
Oscar 19 23 Sep 13:57:03 14:02:01 48° 72° (ENE) 14:07:01 437.125/150
DUCHIFAT 1 23 Sep 14:10:48 14:12:32 12° 267° (W) 14:14:16 145.980
NO-84 23 Sep 14:14:06 14:17:47 38° 316° (NW) 14:21:12 435.350 FM
O/OREOS (USA 219) 23 Sep 14:14:31 14:18:34 31° 257° (WSW) 14:22:36 437.305
PCSat 23 Sep 14:22:48 14:26:31 19° 105° (ESE) 14:30:13 145.827
SO-50 23 Sep 14:26:56 14:31:12 45° 115° (ESE) 14:35:30 436.795
50 SAT 23 Sep 14:35:16 14:38:27 43° 100° (E) 14:41:36 437.505
M-CUBED/EXP-1 PRIME 23 Sep 14:39:34 14:40:42 11° 261° (W) 14:41:49 437.505
BUGSAT 1 23 Sep 14:46:05 14:48:49 18° 265° (W) 14:51:35 437.445
AO-7 23 Sep 14:50:22 14:56:50 26° 59° (ENE) 15:03:16 .
UKube-1 23 Sep 14:58:17 15:02:19 38° 99° (E) 15:06:19 .
DX 1 23 Sep 15:04:25 15:08:45 77° 102° (ESE) 15:13:05 434.975-435.025
ITAMSAT 1 23 Sep 15:04:34 15:06:43 13° 63° (ENE) 15:08:51 435.822/435.867
YUBILEINY 23 Sep 15:13:53 15:19:58 21° 291° (WNW) 15:26:06 435.215
Gurwin Techsat 1B 23 Sep 15:19:21 15:24:17 39° 261° (W) 15:29:16 435.225
VELOX 1 23 Sep 15:32:59 15:34:59 13° 294° (WNW) 15:36:59 145.980
Oscar 19 23 Sep 15:38:14 15:41:32 17° 267° (W) 15:44:51 437.125/150
BEESAT 23 Sep 15:44:39 15:47:06 14° 93° (E) 15:49:34 436.000
RS-15 23 Sep 15:47:26 15:59:25 85° 62° (ENE) 16:10:41 29.354- 29.394
PCSat 23 Sep 16:04:15 16:09:28 48° 300° (WNW) 16:14:43 145.827
SO-50 23 Sep 16:08:51 16:11:52 17° 311° (NW) 16:14:54 436.795
MOZHAYETS 4 23 Sep 16:16:34 16:20:44 32° 97° (E) 16:24:50
UKube-1 23 Sep 16:35:25 16:37:59 16° 293° (WNW) 16:40:31 .
ITAMSAT 1 23 Sep 16:40:23 16:45:31 70° 258° (WSW) 16:50:40 435.822/435.867
AO-7 23 Sep 16:40:38 16:48:54 66° 255° (WSW) 16:57:11 .
ITUPSAT 1 23 Sep 16:43:32 16:48:20 63° 101° (ESE) 16:53:05 437.325
CUBESAT XI-V 23 Sep 16:44:27 16:46:06 12° 92° (E) 16:47:44 437.345
DOVE 4 23 Sep 16:58:58 17:00:49 12° 68° (ENE) 17:02:39 437.250
BEESAT 23 Sep 17:20:28 17:25:06 50° 287° (WNW) 17:29:42 436.000
MOZHAYETS 4 23 Sep 17:54:10 17:57:37 21° 292° (WNW) 18:01:03
RS-15 23 Sep 18:02:25 18:10:10 21° 260° (W) 18:17:44 29.354- 29.394
XW-2D 23 Sep 18:10:43 18:13:31 20° 70° (ENE) 18:16:21 145.860 - 145.880
HO-68 23 Sep 18:13:42 18:16:47 13° 56° (NE) 18:19:51 435.675
KKS-1 23 Sep 18:14:12 18:18:24 40° 99° (E) 18:22:34 437.445
CUBESAT XI-V 23 Sep 18:19:14 18:23:45 54° 286° (WNW) 18:28:13 437.345
XW-2B 23 Sep 18:22:35 18:25:49 26° 72° (ENE) 18:29:03 145.730 - 145.750
XW-2F 23 Sep 18:22:44 18:25:54 25° 72° (ENE) 18:29:04 145.980 - 146.000
ITUPSAT 1 23 Sep 18:23:37 18:25:33 12° 296° (WNW) 18:27:30 437.325
CUTE-I 23 Sep 18:28:02 18:32:45 33° 70° (ENE) 18:37:28 437.470
DOVE 4 23 Sep 18:33:46 18:38:08 48° 260° (W) 18:42:18 437.250
STARS 23 Sep 18:39:05 18:42:56 29° 98° (E) 18:46:46 437.465
XW-2C 23 Sep 18:43:22 18:47:04 51° 76° (ENE) 18:50:50 145.795 - 145.815
NUDT-PHONESAT 23 Sep 18:45:59 18:49:26 37° 74° (ENE) 18:52:56 437.300
LilacSat-2 23 Sep 18:55:24 18:59:16 83° 77° (ENE) 19:03:10 437.200
JUGNU 23 Sep 19:10:38 19:13:21 13° 168° (SSE) 19:16:04 437.505
KAITUO 1B 23 Sep 19:14:00 19:17:48 83° 259° (W) 19:21:36 145.475/437.950
CUTE 1.7 + AOD 2 23 Sep 19:16:28 19:19:52 23° 70° (ENE) 19:23:16 437.475
BEESAT 3 23 Sep 19:31:32 19:34:27 20° 110° (ESE) 19:37:25 437.485
Tancredo 1 23 Sep 19:34:55 19:37:31 55° 135° (SE) 19:40:10 437.200
XW-2D 23 Sep 19:44:28 19:47:32 23° 264° (W) 19:50:37 145.860 - 145.880
CUBEBUG 2 23 Sep 19:45:01 19:48:32 26° 70° (ENE) 19:52:08 437.445
STRAND 1 23 Sep 19:48:57 19:51:21 13° 92° (E) 19:53:44 437.568
KKS-1 23 Sep 19:51:53 19:54:35 16° 293° (WNW) 19:57:16 437.445
UWE-3 23 Sep 19:52:38 19:55:35 18° 68° (ENE) 19:58:35 435.000/436.395/437.385
HO-68 23 Sep 19:56:14 20:03:22 81° 73° (ENE) 20:10:33 435.675
XW-2F 23 Sep 19:57:21 19:59:57 17° 265° (W) 20:02:34 145.980 - 146.000
XW-2B 23 Sep 19:57:27 19:59:57 17° 266° (W) 20:02:29 145.730 - 145.750
ISS 23 Sep 20:01:09 20:02:19 12° 126° (SE) 20:03:30 437.550
CUTE-I 23 Sep 20:08:25 20:12:45 25° 264° (W) 20:17:07 437.470
STARS 23 Sep 20:15:46 20:19:03 21° 291° (WNW) 20:22:20 437.465
NUDT-PHONESAT 23 Sep 20:22:15 20:23:26 11° 268° (W) 20:24:36 437.300
SEEDS 23 Sep 20:23:06 20:27:21 89° 98° (E) 20:31:36 437.485
XW-2A 23 Sep 20:33:52 20:37:15 87° 83° (E) 20:40:41 145.665 - 145.685
Oscar 11 23 Sep 20:36:24 20:39:27 19° 69° (ENE) 20:42:31 .
AO-73 23 Sep 20:36:37 20:40:15 27° 71° (ENE) 20:43:58 145.935
nSIGHT-1 23 Sep 20:38:35 20:41:33 35° 132° (SE) 20:44:32 .
ZACube-1 23 Sep 20:39:13 20:43:03 33° 72° (ENE) 20:47:01 437.345
AAUSAT CUBESAT 2 23 Sep 20:45:53 20:50:01 70° 76° (ENE) 20:54:10 437.432
NO-84 23 Sep 20:50:48 20:53:07 20° 39° (NE) 20:55:22 435.350 FM
CUTE 1.7 + AOD 2 23 Sep 20:52:03 20:55:33 24° 264° (W) 20:59:04 437.475
JUGNU 23 Sep 20:57:41 21:01:38 18° 178° (S) 21:05:33 437.505
BEESAT 3 23 Sep 21:08:19 21:11:48 28° 305° (NW) 21:15:20 437.485
Tancredo 1 23 Sep 21:11:20 21:12:15 11° 331° (NNW) 21:13:11 437.200
BEESAT 2 23 Sep 21:15:02 21:19:01 84° 298° (WNW) 21:23:05 435.950
FO-29 23 Sep 21:20:59 21:23:43 13° 94° (E) 21:26:34 435.910
CUBEBUG 2 23 Sep 21:21:53 21:25:05 21° 266° (W) 21:28:23 437.445
STRAND 1 23 Sep 21:25:48 21:30:51 60° 286° (WNW) 21:35:54 437.568
UWE-3 23 Sep 21:27:57 21:31:44 32° 263° (W) 21:35:40 435.000/436.395/437.385
AO-85 23 Sep 21:33:13 21:36:59 48° 302° (WNW) 21:40:47 145.980
ISS 23 Sep 21:35:14 21:38:25 51° 320° (NW) 21:41:38 437.550
Max Valier Satellite 23 Sep 21:44:24 21:46:33 15° 69° (ENE) 21:48:41 145.860
HO-68 23 Sep 21:47:58 21:51:43 15° 268° (W) 21:55:30 435.675
Oscar 11 23 Sep 22:11:27 22:15:19 31° 263° (W) 22:19:14 .
AO-73 23 Sep 22:13:07 22:16:25 21° 266° (W) 22:19:47 145.935
UNISAT 6 23 Sep 22:13:12 22:14:42 11° 91° (E) 22:16:11 437.425
DELFI C3 23 Sep 22:14:03 22:17:55 53° 76° (ENE) 22:21:46 145.870
nSIGHT-1 23 Sep 22:15:29 22:17:57 20° 328° (NNW) 22:20:25 .
ZACube-1 23 Sep 22:16:30 22:19:23 17° 267° (W) 22:22:20 437.345
SRMSAT 23 Sep 22:23:24 22:26:30 14° 170° (S) 22:29:35 437.500
NO-84 23 Sep 22:28:14 22:30:20 18° 235° (SW) 22:32:24 435.350 FM
TIGRISAT 23 Sep 22:35:12 22:38:34 19° 94° (E) 22:41:56 435.000
EO-88 23 Sep 22:43:12 22:46:50 68° 76° (ENE) 22:50:29 145.990 - 145.960
JUGNU 23 Sep 22:46:25 22:49:55 16° 188° (S) 22:53:25 437.505
SO-50 23 Sep 23:01:47 23:05:02 19° 50° (NE) 23:08:18 436.795
FO-29 23 Sep 23:03:29 23:09:02 69° 285° (WNW) 23:15:15 435.910
PRISM 23 Sep 23:07:35 23:10:42 21° 96° (E) 23:13:47 437.425
Max Valier Satellite 23 Sep 23:16:53 23:20:05 28° 263° (W) 23:23:21 145.860
YUBILEINY 23 Sep 23:28:46 23:36:11 30° 73° (ENE) 23:43:34 435.215
LO-87 23 Sep 23:39:26 23:42:41 36° 74° (ENE) 23:45:58 145.935 - 145.965
UNISAT 6 23 Sep 23:47:05 23:51:42 59° 285° (WNW) 23:56:18 437.425
SRMSAT 24 Sep 00:11:01 00:14:56 18° 180° (S) 00:18:50 437.500
TIGRISAT 24 Sep 00:11:01 00:15:16 35° 288° (WNW) 00:19:32 435.000
ESTCUBE 1 24 Sep 00:19:55 00:24:27 83° 79° (E) 00:29:00 437.505/2401.250
POLYITAN 1 24 Sep 00:34:42 00:37:35 17° 94° (E) 00:40:27 437.675
EO-79 24 Sep 00:38:44 00:41:50 19° 95° (E) 00:44:57 145.935-145.965
SO-50 24 Sep 00:41:17 00:45:41 45° 245° (WSW) 00:50:07 436.795
PRISM 24 Sep 00:42:36 00:45:52 24° 290° (WNW) 00:49:08 437.425
SPROUT 24 Sep 00:46:17 00:50:07 35° 73° (ENE) 00:54:00 437.525
VELOX 1 24 Sep 00:48:48 00:52:34 28° 71° (ENE) 00:56:20 145.980
QB50P2 24 Sep 00:51:50 00:55:40 31° 98° (E) 00:59:27 145.880/145.840
PCSat 24 Sep 00:55:11 01:00:35 65° 62° (ENE) 01:05:56 145.827
AIST 2D 24 Sep 00:59:35 01:03:05 66° 284° (WNW) 01:06:32 435.315
YUBILEINY 24 Sep 01:24:53 01:33:12 52° 270° (W) 01:41:34 435.215
NANOSAT C BR1 24 Sep 01:26:42 01:30:57 67° 101° (ESE) 01:35:11 145.865
UKube-1 24 Sep 01:49:53 01:53:10 22° 69° (ENE) 01:56:28 .
DUCHIFAT 1 24 Sep 01:55:04 01:59:16 62° 285° (WNW) 02:03:28 145.980
DX 1 24 Sep 01:56:27 02:00:32 41° 73° (ENE) 02:04:37 434.975-435.025
Tancredo 1 24 Sep 01:58:23 01:59:33 12° 30° (NNE) 02:00:45 437.200
SRMSAT 24 Sep 02:00:09 02:03:22 15° 190° (S) 02:06:34 437.500
Gurwin Techsat 1B 24 Sep 02:02:42 02:03:23 10° 91° (E) 02:04:04 435.225
POLYITAN 1 24 Sep 02:09:33 02:13:23 32° 288° (WNW) 02:17:12 437.675
Oscar 19 24 Sep 02:12:43 02:16:40 22° 95° (E) 02:20:34 437.125/150
EO-79 24 Sep 02:13:52 02:17:34 29° 289° (WNW) 02:21:15 145.935-145.965
M-CUBED/EXP-1 PRIME 24 Sep 02:17:57 02:21:13 61° 106° (ESE) 02:24:25 437.505
SPROUT 24 Sep 02:23:35 02:26:06 15° 266° (W) 02:28:38 437.525
VELOX 1 24 Sep 02:25:38 02:28:58 21° 264° (W) 02:32:18 145.980
QB50P2 24 Sep 02:28:12 02:31:11 19° 291° (WNW) 02:34:09 145.880/145.840
BUGSAT 1 24 Sep 02:29:11 02:33:25 79° 102° (ESE) 02:37:39 437.445
50 SAT 24 Sep 02:33:49 02:36:55 37° 261° (W) 02:40:01 437.505
PCSat 24 Sep 02:40:44 02:43:20 14° 257° (WSW) 02:45:55 145.827
O/OREOS (USA 219) 24 Sep 02:43:52 02:48:06 43° 105° (ESE) 02:52:24 437.305
BEESAT 24 Sep 02:48:56 02:50:38 12° 64° (ENE) 02:52:21 436.000
nSIGHT-1 24 Sep 03:09:11 03:10:56 14° 28° (NNE) 03:12:41 .
MOZHAYETS 4 24 Sep 03:15:31 03:19:01 22° 69° (ENE) 03:22:31
UKube-1 24 Sep 03:25:23 03:29:00 26° 263° (W) 03:32:39 .
Tancredo 1 24 Sep 03:31:38 03:34:14 48° 226° (SW) 03:36:50 437.200
DX 1 24 Sep 03:34:38 03:36:51 14° 266° (W) 03:39:05 434.975-435.025
Gurwin Techsat 1B 24 Sep 03:38:29 03:43:48 77° 285° (WNW) 03:49:07 435.225
ITUPSAT 1 24 Sep 03:46:48 03:51:23 49° 73° (ENE) 03:56:00 437.325
Oscar 19 24 Sep 03:51:19 03:56:01 37° 289° (WNW) 04:00:42 437.125/150
RS-15 24 Sep 03:59:24 04:05:46 16° 97° (E) 04:12:08 29.354- 29.394
ISS 24 Sep 04:05:44 04:08:48 36° 37° (NE) 04:11:52 437.550
BEESAT 24 Sep 04:23:06 04:27:48 64° 258° (WSW) 04:32:33 436.000
O/OREOS (USA 219) 24 Sep 04:25:02 04:27:43 15° 301° (WNW) 04:30:25 437.305
nSIGHT-1 24 Sep 04:44:21 04:47:35 72° 224° (SW) 04:50:49 .
AO-7 24 Sep 04:46:02 04:54:07 54° 103° (ESE) 05:02:08 .
MOZHAYETS 4 24 Sep 04:51:52 04:55:56 31° 263° (W) 05:00:03
ITAMSAT 1 24 Sep 04:56:33 05:01:39 54° 101° (E) 05:06:45 435.822/435.867
KKS-1 24 Sep 05:09:17 05:12:52 25° 70° (ENE) 05:16:28 437.445
CUBESAT XI-V 24 Sep 05:18:28 05:23:11 84° 257° (WSW) 05:27:55 437.345
ITUPSAT 1 24 Sep 05:26:56 05:29:26 14° 267° (W) 05:31:56 437.325
BEESAT 3 24 Sep 05:27:26 05:31:19 52° 58° (ENE) 05:35:07 437.485
STARS 24 Sep 05:33:09 05:36:04 18° 68° (ENE) 05:38:58 437.465
BEESAT 2 24 Sep 05:36:19 05:39:23 20° 52° (NE) 05:42:24 435.950
ISS 24 Sep 05:42:49 05:45:04 17° 232° (SW) 05:47:17 437.550
RS-15 24 Sep 06:04:03 06:16:13 79° 115° (ESE) 06:28:34 29.354- 29.394
AO-85 24 Sep 06:06:18 06:10:42 49° 58° (ENE) 06:15:25 145.980
LilacSat-2 24 Sep 06:34:15 06:35:18 11° 92° (E) 06:36:22 437.200
DOVE 4 24 Sep 06:35:02 06:39:14 52° 100° (E) 06:43:38 437.250
ITAMSAT 1 24 Sep 06:37:30 06:40:37 16° 296° (WNW) 06:43:45 435.822/435.867
AO-7 24 Sep 06:39:28 06:46:25 31° 299° (WNW) 06:53:23 .
KKS-1 24 Sep 06:45:42 06:49:18 24° 264° (W) 06:52:55 437.445
CUTE-I 24 Sep 06:49:11 06:52:38 17° 94° (E) 06:56:04 437.470
KAITUO 1B 24 Sep 06:50:22 06:51:43 12° 93° (E) 06:53:04 145.475/437.950
STRAND 1 24 Sep 07:01:55 07:04:35 14° 64° (ENE) 07:07:15 437.568
STARS 24 Sep 07:08:10 07:12:06 34° 262° (W) 07:16:04 437.465
BEESAT 2 24 Sep 07:13:36 07:17:07 29° 247° (WSW) 07:20:34 435.950
XW-2D 24 Sep 07:19:21 07:22:59 43° 98° (E) 07:26:35 145.860 - 145.880
HO-68 24 Sep 07:29:27 07:34:03 18° 93° (E) 07:38:38 435.675
XW-2F 24 Sep 07:31:13 07:34:57 57° 100° (E) 07:38:37 145.980 - 146.000
XW-2B 24 Sep 07:31:38 07:35:24 62° 101° (E) 07:39:08 145.730 - 145.750
AO-85 24 Sep 07:48:01 07:50:48 16° 250° (WSW) 07:53:40 145.980
NUDT-PHONESAT 24 Sep 07:52:43 07:56:28 85° 108° (ESE) 08:00:09 437.300
XW-2C 24 Sep 07:53:01 07:56:47 63° 284° (WNW) 08:00:31 145.795 - 145.815
LilacSat-2 24 Sep 08:06:09 08:09:44 38° 286° (WNW) 08:13:16 437.200
SEEDS 24 Sep 08:11:07 08:14:02 18° 94° (E) 08:16:56 437.485
DOVE 4 24 Sep 08:15:03 08:16:31 12° 293° (WNW) 08:18:00 437.250
RS-15 24 Sep 08:19:23 08:30:00 33° 318° (NW) 08:40:41 29.354- 29.394
KAITUO 1B 24 Sep 08:22:24 08:25:49 34° 287° (WNW) 08:29:11 145.475/437.950
CUTE-I 24 Sep 08:27:45 08:32:53 49° 288° (WNW) 08:38:00 437.470
AAUSAT CUBESAT 2 24 Sep 08:32:50 08:34:52 13° 93° (E) 08:36:53 437.432
STRAND 1 24 Sep 08:38:13 08:43:13 59° 259° (W) 08:48:15 437.568
CUTE 1.7 + AOD 2 24 Sep 08:39:11 08:43:25 72° 101° (ESE) 08:47:36 437.475
XW-2D 24 Sep 08:55:59 08:56:43 10° 293° (WNW) 08:57:27 145.860 - 145.880
FO-29 24 Sep 09:13:20 09:18:22 32° 71° (ENE) 09:23:02 435.910
CUBEBUG 2 24 Sep 09:14:10 09:18:55 83° 284° (WNW) 09:23:40 437.445
HO-68 24 Sep 09:15:07 09:22:16 71° 288° (WNW) 09:29:24 435.675
UWE-3 24 Sep 09:19:52 09:24:32 64° 100° (E) 09:29:09 435.000/436.395/437.385
XW-2A 24 Sep 09:31:14 09:34:34 51° 284° (WNW) 09:37:52 145.665 - 145.685
TIGRISAT 24 Sep 09:32:59 09:33:56 11° 64° (ENE) 09:34:53 435.000
SEEDS 24 Sep 09:46:06 09:49:42 28° 288° (WNW) 09:53:16 437.485
PRISM 24 Sep 09:56:10 09:56:40 10° 65° (ENE) 09:57:10 437.425
Oscar 11 24 Sep 10:01:20 10:05:37 59° 100° (E) 10:09:52 .
AO-73 24 Sep 10:02:54 10:07:30 88° 279° (W) 10:12:01 145.935
ZACube-1 24 Sep 10:06:09 10:10:45 72° 284° (WNW) 10:15:16 437.345
AAUSAT CUBESAT 2 24 Sep 10:06:38 10:10:26 37° 287° (WNW) 10:14:12 437.432
UNISAT 6 24 Sep 10:42:12 10:46:29 79° 78° (ENE) 10:50:56 437.425
RS-15 24 Sep 10:42:49 10:48:20 14° 352° (N) 10:53:48 29.354- 29.394
Max Valier Satellite 24 Sep 10:49:39 10:52:58 30° 97° (E) 10:56:15 145.860
FO-29 24 Sep 10:58:35 11:03:26 27° 262° (W) 11:07:57 435.910
UWE-3 24 Sep 10:58:52 11:00:22 11° 295° (WNW) 11:01:52 435.000/436.395/437.385
TIGRISAT 24 Sep 11:05:47 11:10:01 59° 260° (W) 11:14:23 435.000
HO-68 24 Sep 11:06:40 11:08:43 11° 305° (NW) 11:10:47 435.675
PRISM 24 Sep 11:27:25 11:31:25 54° 259° (W) 11:35:26 437.425
DELFI C3 24 Sep 11:28:36 11:32:26 54° 285° (WNW) 11:36:15 145.870
AIST 2D 24 Sep 11:30:42 11:33:34 23° 72° (ENE) 11:36:26 435.315
Oscar 11 24 Sep 11:40:20 11:41:12 10° 295° (WNW) 11:42:03 .
QB50P2 24 Sep 11:42:09 11:44:40 16° 68° (ENE) 11:47:12 145.880/145.840
EO-88 24 Sep 11:48:31 11:52:05 53° 284° (WNW) 11:55:37 145.990 - 145.960
NO-84 24 Sep 12:04:18 12:06:30 14° 123° (ESE) 12:08:39 435.350 FM
NANOSAT C BR1 24 Sep 12:15:30 12:19:09 30° 72° (ENE) 12:22:50 145.865
ESTCUBE 1 24 Sep 12:16:24 12:19:55 22° 95° (E) 12:23:23 437.505/2401.250
Max Valier Satellite 24 Sep 12:24:26 12:26:29 14° 291° (WNW) 12:28:32 145.860
YUBILEINY 24 Sep 12:25:25 12:33:12 38° 87° (E) 12:40:58 435.215
LO-87 24 Sep 12:42:13 12:45:50 78° 102° (ESE) 12:49:26 145.935 - 145.965
DUCHIFAT 1 24 Sep 12:43:00 12:47:06 58° 75° (ENE) 12:51:14 145.980
O/OREOS (USA 219) 24 Sep 12:56:57 13:01:25 49° 67° (ENE) 13:05:52 437.305
POLYITAN 1 24 Sep 12:57:54 13:02:03 69° 258° (WSW) 13:06:17 437.675
RS-15 24 Sep 12:59:25 13:07:58 21° 30° (NNE) 13:16:11 29.354- 29.394
M-CUBED/EXP-1 PRIME 24 Sep 12:59:40 13:03:50 47° 70° (ENE) 13:07:44 437.505
EO-79 24 Sep 13:02:00 13:06:08 61° 259° (W) 13:10:19 145.935-145.965
AIST 2D 24 Sep 13:04:29 13:06:42 16° 266° (W) 13:08:55 435.315
BUGSAT 1 24 Sep 13:15:40 13:19:14 32° 72° (ENE) 13:22:51 437.445
SO-50 24 Sep 13:15:45 13:16:33 10° 107° (ESE) 13:17:20 436.795
QB50P2 24 Sep 13:16:15 13:20:07 36° 262° (W) 13:24:01 145.880/145.840
Gurwin Techsat 1B 24 Sep 13:19:35 13:22:07 14° 63° (ENE) 13:24:39 435.225
Oscar 19 24 Sep 13:26:20 13:30:25 24° 68° (ENE) 13:34:31 437.125/150
NO-84 24 Sep 13:39:46 13:43:40 52° 315° (NW) 13:47:16 435.350 FM
